sat.trackr.live / text

‹ back to catalog

STARLINK-37803

NORAD 69319 · 2026-119Z

PAYLOAD ACTIVE UNKNOWN

§ Identity

Operator
Country
US
Launch date
2026-05-30
Launch site
AFWTR
Launch vehicle
Mass (kg)
RCS (m²)

Purposes: comms

External: N2YO · Heavens-Above · Gunter

§ Orbital elements

Epoch: 2026-09-19T22:42:11.388096Z

Period
93.91 min
Inclination
97.2831°
Eccentricity
0.0000752
Mean motion
15.33460475 rev/d
Perigee alt
465.0 km
Apogee alt
466.0 km
Semi-major
6,843.6 km
B*
3.1008e-4
RAAN
287.7687°
Arg perigee
103.7752°
Mean anomaly
256.3574°
Rev number
1,733

§ Raw data

STARLINK-378031 69319U 26119Z   26262.94596514  .00009954  00000+0  31008-3 0  99992 69319  97.2831 287.7687 0000752 103.7752 256.3574 15.33460475 17338

JSON: /api/v1/satellites/69319 · /tle

For live sub-satellite position, see the globe view (requires WebGL).

§ Visibility from observer

Set your observer location to see the next 7 days of passes ≥ 10°. The values pass through the URL so the page stays shareable.

No JS? Fill the form by hand. The geolocation button needs JavaScript.